AGROMETEOROLOŠKI PORTAL

vinorodna pokrajina

Temelj dobrega kmetovanja

Pregled podatkov za lokacijo Stročja vas, meteorološka postaja 42838

Pregled senzorjev na lokaciji

ID Ime Zadnja
vrednost
Datum in čas
meritve
(lokalni čas)
Tip
senzorja
6577 Omočenost lista (1,5 m) (U) 0 U 4.2.2023 23:00 A730WET
6578 Padavine (mm) 0 mm 4.2.2023 23:00 Generic 0.2 mm
7075 Relativna zračna vlaga (2 m) (%RH) 48 %RH 4.2.2023 23:00 50YA
7074 Temperatura (2 m) (°C) 1 °C 4.2.2023 23:00 50YA
6581 Hitrost vetra (3 m) (km/h) 7 km/h 4.2.2023 23:00 Generic 100 km/h

Pregled podatkov zadnjih 24 ur

Zap.
št.
Datum in čas
(lokalni čas)
Stročja vas
Omočenost
lista
(1,5
m)
Padavine Relativna
zračna
vlaga
(2
m)
Temperatura
(2
m)
Hitrost
vetra
(3
m)
1 4.2.2023 23:00 0 0 47,8 1 7,3
2 4.2.2023 22:30 0 0 47,4 1,2 7,5
3 4.2.2023 22:00 0 0 47,1 1,3 8,2
4 4.2.2023 21:30 0 0 45,1 1,5 8,6
5 4.2.2023 21:00 0 0 43,9 1,6 8,5
6 4.2.2023 20:30 0 0 45,2 1,4 7,9
7 4.2.2023 20:00 0 0 51,9 1,2 6,1
8 4.2.2023 19:30 0 0 56 1 4,7
9 4.2.2023 19:00 0 0 55,4 1,1 4,1
10 4.2.2023 18:30 0 0 54 1,4 4,9
11 4.2.2023 18:00 0 0 51,6 2,2 6,4
12 4.2.2023 17:30 0 0 48,3 2,8 8,4
13 4.2.2023 17:00 0 0 45,8 3,3 8,1
14 4.2.2023 16:30 0 0 44,1 3,7 8,4
15 4.2.2023 16:00 0 0 41,4 4,3 9,4
16 4.2.2023 15:30 0 0 40,9 4,5 12,3
17 4.2.2023 15:00 0 0 41,2 4,7 13,1
18 4.2.2023 14:30 0 0 41,4 5,1 13
19 4.2.2023 14:00 0 0 42,6 5,4 14
20 4.2.2023 13:30 0 0 42,1 5,2 14,7
21 4.2.2023 13:00 0 0 42,3 5,2 17,1
22 4.2.2023 12:30 0 0 45,3 5,1 18
23 4.2.2023 12:00 0 0 56,1 4,8 19,7
24 4.2.2023 11:30 0 0 58,8 5 15,5
25 4.2.2023 11:00 0 0 56,2 5,6 14,7
26 4.2.2023 10:30 0 0 55,7 5,9 15,1
27 4.2.2023 10:00 0 0 67,4 5,4 12
28 4.2.2023 09:30 0 0 74 4,9 9,4
29 4.2.2023 09:00 1 0 74,3 4,6 13,2
30 4.2.2023 08:30 10 0 72,2 4,9 12,3
31 4.2.2023 08:00 0 0 69,4 4,7 8,4
32 4.2.2023 07:30 0 0 70,7 4,3 6,6
33 4.2.2023 07:00 0 0 70,6 4,4 4,3
34 4.2.2023 06:30 0 0 69,5 4,7 3,3
35 4.2.2023 06:00 0 0 70,4 4,4 3,4
36 4.2.2023 05:30 0 0 66,1 5,4 5,6
37 4.2.2023 05:00 0 0 67,3 5,4 4,4
38 4.2.2023 04:30 0 0 70,1 5,4 5,8
39 4.2.2023 04:00 0 0 74,3 5,1 3,7
40 4.2.2023 03:30 2 0 83,1 3,3 1,8
41 4.2.2023 03:00 0 0 83,7 3,2 1,5
42 4.2.2023 02:30 0 0 81,4 3,5 1,6
43 4.2.2023 02:00 0 0 76,6 4,5 2,1
44 4.2.2023 01:30 0 0 73,6 5,4 2,5
45 4.2.2023 01:00 2 0 71,5 5,9 3,1
46 4.2.2023 00:30 0 0 69,7 6,2 2,2
47 4.2.2023 00:00 0 0 65,1 6,4 2,3
48 3.2.2023 23:30 0 0 62,5 6,8 1,3